Location: Eagle Observatory
(42.5300°N, 88.2800°W)
Time: 11:16:38
(UTC-05:00)

Hubble Space Telescope - Visible Passes

Search period start: 23 March 2017 00:00
Search period end: 02 April 2017 00:00
Orbit: 538 x 542 km, 28.5° (Epoch: 21 March)

Date Brightness Start Highest point End Pass type
(mag) Time Alt. Az. Time Alt. Az. Time Alt. Az.
28 Mar 3.2 05:42:28 10° S 05:43:22 11° S 05:44:16 10° SSE visible
29 Mar 3.1 05:31:59 10° SSW 05:33:13 11° S 05:34:27 10° SSE visible
30 Mar 3.1 05:21:53 10° SSW 05:23:04 11° S 05:24:26 10° SSE visible
31 Mar 3.0 05:12:24 11° S 05:12:55 11° S 05:14:17 10° SSE visible
01 Apr 3.1 05:02:57 11° S 05:02:57 11° S 05:03:59 10° SSE visible
